User: anonymous   Login
Location: *
(17.3280°S, 114.7300°W)
Time: 13:16:11
(UTC+00:00)
Language:

MOS 1-B - Orbit

View from above orbital plane
View from above orbital plane
View from above satellite
View from above satellite

Ground track
Ground track

The orbit data is extracted from the following two-line orbital elements,

1 20478U 90013A   20294.43804366 +.00000145 +00000-0 +14127-3 0  9993
2 20478 099.4276 293.1604 0006109 038.4058 321.7537 13.95513515484089
Epoch (UTC): 20 October 2020 10:30:46
Eccentricity: 0.0006109
inclination: 99.4276°
perigee height: 905 km
apogee height: 914 km
right ascension of ascending node: 293.1604°
argument of perigee: 38.4058°
revolutions per day: 13.95513515
mean anomaly at epoch: 321.7537°
orbit number at epoch: 48408

The dashed part of the orbit path shows where the satellite is in the earth's shadow,  

DLR